Time,TemperatureF,DewpointF,PressureIn,WindDirection,WindDirectionDegrees,WindSpeedMPH,WindSpeedGustMPH,Humidity,HourlyPrecipIn,Conditions,Clouds,dailyrainin,SoftwareType,DateUTC
2013-04-13 00:03:00,43.0,32.0,-100.00,SE,128,6.0,12.0,63,0.00,,,-99.99,,2013-04-13 04:03:00,
2013-04-13 00:12:00,42.0,32.0,-100.00,NNW,327,6.0,12.0,63,0.00,,,-99.99,,2013-04-13 04:12:00,
2013-04-13 00:23:00,43.0,32.0,-100.00,WSW,242,4.0,12.0,62,0.00,,,-99.99,,2013-04-13 04:23:00,
2013-04-13 00:33:00,42.0,32.0,-100.00,WNW,292,2.0,12.0,64,0.00,,,-99.99,,2013-04-13 04:33:00,
2013-04-13 00:42:00,42.0,32.0,-100.00,WSW,242,2.0,12.0,64,0.00,,,-99.99,,2013-04-13 04:42:00,
2013-04-13 00:53:00,42.0,32.0,-100.00,West,276,2.0,12.0,64,0.00,,,-99.99,,2013-04-13 04:53:00,
2013-04-13 01:03:00,42.0,32.0,-100.00,West,272,1.0,12.0,66,0.00,,,-99.99,,2013-04-13 05:03:00,
2013-04-13 01:12:00,42.0,32.0,-100.00,West,275,1.0,12.0,67,0.00,,,-99.99,,2013-04-13 05:12:00,
2013-04-13 01:22:00,41.0,32.0,-100.00,West,268,1.0,12.0,67,0.00,,,-99.99,,2013-04-13 05:22:00,
2013-04-13 01:32:00,41.0,32.0,-100.00,WSW,241,1.0,12.0,68,0.00,,,-99.99,,2013-04-13 05:32:00,
2013-04-13 01:43:00,41.0,32.0,-100.00,WNW,297,1.0,12.0,69,0.00,,,-99.99,,2013-04-13 05:43:00,
2013-04-13 01:52:00,40.0,32.0,-100.00,NW,304,0.0,12.0,69,0.00,,,-99.99,,2013-04-13 05:52:00,
2013-04-13 02:02:00,41.0,32.0,-100.00,South,176,2.0,12.0,68,0.00,,,-99.99,,2013-04-13 06:02:00,
2013-04-13 02:12:00,41.0,32.0,-100.00,WNW,286,1.0,12.0,68,0.00,,,-99.99,,2013-04-13 06:12:00,
2013-04-13 02:24:00,41.0,32.0,-100.00,SW,218,1.0,12.0,68,0.00,,,-99.99,,2013-04-13 06:24:00,
2013-04-13 02:35:00,40.0,32.0,-100.00,SW,230,0.0,12.0,68,0.00,,,-99.99,,2013-04-13 06:35:00,
2013-04-13 02:49:00,40.0,32.0,-100.00,West,265,0.0,12.0,69,0.00,,,-99.99,,2013-04-13 06:49:00,
2013-04-13 03:07:00,40.0,32.0,-100.00,West,280,1.0,12.0,71,0.00,,,-99.99,,2013-04-13 07:07:00,
2013-04-13 03:15:00,41.0,32.0,-100.00,WSW,255,0.0,12.0,73,0.00,,,-99.99,,2013-04-13 07:15:00,
2013-04-13 03:24:00,40.0,32.0,-100.00,WNW,285,1.0,12.0,71,0.00,,,-99.99,,2013-04-13 07:24:00,
2013-04-13 03:35:00,41.0,32.0,-100.00,WSW,241,2.0,12.0,71,0.00,,,-99.99,,2013-04-13 07:35:00,
2013-04-13 03:45:00,41.0,32.0,-100.00,West,279,1.0,12.0,71,0.00,,,-99.99,,2013-04-13 07:45:00,
2013-04-13 03:54:00,41.0,32.0,-100.00,West,273,2.0,12.0,72,0.00,,,-99.99,,2013-04-13 07:54:00,
2013-04-13 04:07:00,41.0,32.0,-100.00,WNW,297,2.0,12.0,71,0.00,,,-99.99,,2013-04-13 08:07:00,
2013-04-13 04:16:00,41.0,32.0,-100.00,NNW,336,1.0,12.0,71,0.00,,,-99.99,,2013-04-13 08:16:00,
2013-04-13 04:26:00,41.0,32.0,-100.00,WNW,297,2.0,12.0,71,0.00,,,-99.99,,2013-04-13 08:26:00,
2013-04-13 04:35:00,41.0,32.0,-100.00,WSW,244,2.0,12.0,72,0.00,,,-99.99,,2013-04-13 08:35:00,
2013-04-13 04:46:00,40.0,32.0,-100.00,West,279,1.0,12.0,72,0.00,,,-99.99,,2013-04-13 08:46:00,
2013-04-13 04:53:00,41.0,32.0,-100.00,SSW,196,1.0,12.0,73,0.00,,,-99.99,,2013-04-13 08:53:00,
2013-04-13 05:05:00,40.0,32.0,-100.00,WNW,289,1.0,1.0,73,0.00,,,-99.99,,2013-04-13 09:05:00,
2013-04-13 05:15:00,41.0,32.0,-100.00,WSW,249,1.0,1.0,75,0.00,,,-99.99,,2013-04-13 09:15:00,
2013-04-13 05:25:00,41.0,32.0,-100.00,West,265,1.0,1.0,73,0.00,,,-99.99,,2013-04-13 09:25:00,
2013-04-13 05:37:00,41.0,32.0,-100.00,West,276,2.0,4.0,73,0.00,,,-99.99,,2013-04-13 09:37:00,
2013-04-13 05:51:00,41.0,32.0,-100.00,NW,323,2.0,4.0,73,0.00,,,-99.99,,2013-04-13 09:51:00,
2013-04-13 06:05:00,41.0,32.0,-100.00,West,265,1.0,4.0,73,0.00,,,-99.99,,2013-04-13 10:05:00,
2013-04-13 06:16:00,41.0,32.0,-100.00,West,273,1.0,4.0,75,0.00,,,-99.99,,2013-04-13 10:16:00,
2013-04-13 06:25:00,41.0,32.0,-100.00,WNW,292,2.0,4.0,75,0.00,,,-99.99,,2013-04-13 10:25:00,
2013-04-13 06:37:00,41.0,32.0,-100.00,West,280,2.0,4.0,73,0.00,,,-99.99,,2013-04-13 10:37:00,
2013-04-13 06:47:00,41.0,32.0,-100.00,NW,323,1.0,4.0,73,0.00,,,-99.99,,2013-04-13 10:47:00,
2013-04-13 06:54:00,41.0,32.0,-100.00,WSW,254,3.0,4.0,72,0.00,,,-99.99,,2013-04-13 10:54:00,
2013-04-13 07:07:00,41.0,32.0,-100.00,WSW,252,1.0,4.0,72,0.00,,,-99.99,,2013-04-13 11:07:00,
2013-04-13 07:14:00,41.0,32.0,-100.00,West,276,2.0,4.0,72,0.00,,,-99.99,,2013-04-13 11:14:00,
2013-04-13 07:24:00,41.0,32.0,-100.00,WNW,285,2.0,4.0,71,0.00,,,-99.99,,2013-04-13 11:24:00,
2013-04-13 07:45:00,41.0,32.0,-100.00,WSW,242,1.0,4.0,73,0.00,,,-99.99,,2013-04-13 11:45:00,
2013-04-13 07:53:00,41.0,32.0,-100.00,WNW,283,1.0,4.0,75,0.00,,,-99.99,,2013-04-13 11:53:00,
2013-04-13 08:08:00,41.0,32.0,-100.00,WNW,293,3.0,4.0,68,0.00,,,-99.99,,2013-04-13 12:08:00,
2013-04-13 08:16:00,41.0,32.0,-100.00,SW,221,2.0,4.0,69,0.00,,,-99.99,,2013-04-13 12:16:00,
2013-04-13 08:25:00,41.0,32.0,-100.00,WNW,303,2.0,4.0,68,0.00,,,-99.99,,2013-04-13 12:25:00,
2013-04-13 08:36:00,41.0,32.0,-100.00,West,265,3.0,6.0,67,0.00,,,-99.99,,2013-04-13 12:36:00,
2013-04-13 08:47:00,41.0,32.0,-100.00,NW,309,2.0,6.0,69,0.00,,,-99.99,,2013-04-13 12:47:00,
2013-04-13 08:54:00,42.0,32.0,-100.00,South,186,4.0,6.0,67,0.00,,,-99.99,,2013-04-13 12:54:00,
2013-04-13 09:08:00,42.0,32.0,-100.00,SW,221,2.0,6.0,68,0.00,,,-99.99,,2013-04-13 13:08:00,
2013-04-13 09:16:00,41.0,32.0,-100.00,WSW,237,2.0,6.0,68,0.00,,,-99.99,,2013-04-13 13:16:00,
2013-04-13 09:30:00,41.0,32.0,-100.00,South,184,1.0,6.0,69,0.00,,,-99.99,,2013-04-13 13:30:00,
2013-04-13 09:54:00,42.0,32.0,-100.00,NW,317,2.0,6.0,69,0.00,,,-99.99,,2013-04-13 13:54:00,
2013-04-13 10:05:00,42.0,32.0,-100.00,West,278,4.0,6.0,71,0.00,,,-99.99,,2013-04-13 14:05:00,
2013-04-13 10:15:00,43.0,34.0,-100.00,NNE,14,1.0,6.0,71,0.00,,,-99.99,,2013-04-13 14:15:00,
2013-04-13 10:24:00,42.0,32.0,-100.00,WSW,240,1.0,6.0,68,0.00,,,-99.99,,2013-04-13 14:24:00,
2013-04-13 10:39:00,42.0,32.0,-100.00,NW,306,2.0,6.0,67,0.00,,,-99.99,,2013-04-13 14:39:00,
2013-04-13 10:47:00,43.0,32.0,-100.00,WNW,295,2.0,6.0,67,0.00,,,-99.99,,2013-04-13 14:47:00,
2013-04-13 10:55:00,42.0,32.0,-100.00,WSW,244,2.0,6.0,67,0.00,,,-99.99,,2013-04-13 14:55:00,
2013-04-13 11:05:00,43.0,32.0,-100.00,WSW,249,3.0,6.0,63,0.00,,,-99.99,,2013-04-13 15:05:00,
2013-04-13 11:15:00,43.0,32.0,-100.00,WNW,282,2.0,6.0,62,0.00,,,-99.99,,2013-04-13 15:15:00,
2013-04-13 11:29:00,42.0,32.0,-100.00,WSW,252,4.0,6.0,63,0.00,,,-99.99,,2013-04-13 15:29:00,
2013-04-13 11:37:00,42.0,30.0,-100.00,West,269,5.0,8.0,60,0.00,,,-99.99,,2013-04-13 15:37:00,
2013-04-13 11:44:00,43.0,30.0,-100.00,WNW,282,6.0,8.0,59,0.00,,,-99.99,,2013-04-13 15:44:00,
2013-04-13 11:55:00,43.0,30.0,-100.00,SW,235,5.0,8.0,60,0.00,,,-99.99,,2013-04-13 15:55:00,
2013-04-13 12:07:00,43.0,32.0,-100.00,West,275,9.0,14.0,60,0.00,,,-99.99,,2013-04-13 16:07:00,
2013-04-13 12:15:00,44.0,32.0,-100.00,WSW,247,3.0,14.0,59,0.00,,,-99.99,,2013-04-13 16:15:00,
2013-04-13 12:25:00,43.0,30.0,-100.00,SW,234,4.0,14.0,60,0.00,,,-99.99,,2013-04-13 16:25:00,
2013-04-13 12:36:00,43.0,30.0,-100.00,NNW,327,2.0,14.0,60,0.00,,,-99.99,,2013-04-13 16:36:00,
2013-04-13 12:47:00,43.0,30.0,-100.00,WSW,240,2.0,14.0,60,0.00,,,-99.99,,2013-04-13 16:47:00,
2013-04-13 12:54:00,43.0,32.0,-100.00,West,280,5.0,14.0,60,0.00,,,-99.99,,2013-04-13 16:54:00,
2013-04-13 13:08:00,44.0,32.0,-100.00,WSW,252,3.0,14.0,60,0.00,,,-99.99,,2013-04-13 17:08:00,
2013-04-13 13:22:00,43.0,30.0,-100.00,WNW,286,3.0,14.0,59,0.00,,,-99.99,,2013-04-13 17:22:00,
2013-04-13 13:44:00,44.0,32.0,-100.00,West,275,3.0,14.0,58,0.00,,,-99.99,,2013-04-13 17:44:00,
2013-04-13 13:59:00,45.0,32.0,-100.00,NW,321,3.0,14.0,58,0.00,,,-99.99,,2013-04-13 17:59:00,
2013-04-13 14:07:00,46.0,32.0,-100.00,WSW,252,3.0,14.0,58,0.00,,,-99.99,,2013-04-13 18:07:00,
2013-04-13 14:15:00,45.0,30.0,-100.00,SW,235,4.0,14.0,55,0.00,,,-99.99,,2013-04-13 18:15:00,
2013-04-13 14:25:00,47.0,32.0,-100.00,NNW,327,5.0,14.0,54,0.00,,,-99.99,,2013-04-13 18:25:00,
2013-04-13 14:33:00,47.0,32.0,-100.00,NW,309,4.0,14.0,55,0.00,,,-99.99,,2013-04-13 18:33:00,
2013-04-13 14:42:00,46.0,32.0,-100.00,NNW,337,3.0,14.0,54,0.00,,,-99.99,,2013-04-13 18:42:00,
2013-04-13 14:52:00,47.0,32.0,-100.00,WNW,286,4.0,14.0,55,0.00,,,-99.99,,2013-04-13 18:52:00,
2013-04-13 15:03:00,47.0,32.0,-100.00,West,278,5.0,14.0,55,0.00,,,-99.99,,2013-04-13 19:03:00,
2013-04-13 15:12:00,47.0,32.0,-100.00,West,273,4.0,14.0,54,0.00,,,-99.99,,2013-04-13 19:12:00,
2013-04-13 15:22:00,47.0,32.0,-100.00,West,272,6.0,14.0,54,0.00,,,-99.99,,2013-04-13 19:22:00,
2013-04-13 15:32:00,48.0,32.0,-100.00,West,264,5.0,14.0,54,0.00,,,-99.99,,2013-04-13 19:32:00,
2013-04-13 15:42:00,47.0,32.0,-100.00,WSW,248,4.0,14.0,55,0.00,,,-99.99,,2013-04-13 19:42:00,
2013-04-13 15:52:00,49.0,32.0,-100.00,WNW,286,2.0,14.0,53,0.00,,,-99.99,,2013-04-13 19:52:00,
2013-04-13 16:02:00,47.0,32.0,-100.00,West,264,6.0,14.0,54,0.00,,,-99.99,,2013-04-13 20:02:00,
2013-04-13 16:12:00,48.0,32.0,-100.00,North,0,3.0,14.0,53,0.00,,,-99.99,,2013-04-13 20:12:00,
2013-04-13 16:22:00,49.0,32.0,-100.00,West,266,2.0,14.0,53,0.00,,,-99.99,,2013-04-13 20:22:00,
2013-04-13 16:32:00,48.0,32.0,-100.00,WSW,244,6.0,14.0,53,0.00,,,-99.99,,2013-04-13 20:32:00,
2013-04-13 16:42:00,47.0,32.0,-100.00,NW,313,7.0,14.0,54,0.00,,,-99.99,,2013-04-13 20:42:00,
2013-04-13 16:52:00,49.0,32.0,-100.00,SSW,193,4.0,14.0,53,0.00,,,-99.99,,2013-04-13 20:52:00,
2013-04-13 17:02:00,48.0,32.0,-100.00,NW,313,7.0,14.0,51,0.00,,,-99.99,,2013-04-13 21:02:00,
2013-04-13 17:12:00,48.0,32.0,-100.00,WSW,258,7.0,14.0,51,0.00,,,-99.99,,2013-04-13 21:12:00,
2013-04-13 17:22:00,48.0,32.0,-100.00,West,276,7.0,14.0,53,0.00,,,-99.99,,2013-04-13 21:22:00,
2013-04-13 17:33:00,49.0,32.0,-100.00,NW,316,6.0,14.0,51,0.00,,,-99.99,,2013-04-13 21:33:00,
2013-04-13 17:43:00,49.0,32.0,-100.00,WSW,258,7.0,14.0,51,0.00,,,-99.99,,2013-04-13 21:43:00,
2013-04-13 17:52:00,50.0,32.0,-100.00,NW,309,4.0,14.0,51,0.00,,,-99.99,,2013-04-13 21:52:00,
2013-04-13 18:03:00,49.0,32.0,-100.00,NW,316,8.0,14.0,53,0.00,,,-99.99,,2013-04-13 22:03:00,
2013-04-13 18:13:00,49.0,32.0,-100.00,West,278,9.0,14.0,51,0.00,,,-99.99,,2013-04-13 22:13:00,
2013-04-13 18:23:00,49.0,32.0,-100.00,WSW,256,10.0,14.0,50,0.00,,,-99.99,,2013-04-13 22:23:00,
2013-04-13 18:33:00,49.0,32.0,-100.00,West,269,8.0,14.0,51,0.00,,,-99.99,,2013-04-13 22:33:00,
2013-04-13 18:42:00,49.0,32.0,-100.00,WNW,283,4.0,14.0,53,0.00,,,-99.99,,2013-04-13 22:42:00,
2013-04-13 18:52:00,50.0,32.0,-100.00,WNW,295,4.0,14.0,51,0.00,,,-99.99,,2013-04-13 22:52:00,
2013-04-13 19:02:00,50.0,32.0,-100.00,WSW,247,6.0,14.0,51,0.00,,,-99.99,,2013-04-13 23:02:00,
2013-04-13 19:12:00,49.0,32.0,-100.00,NNE,28,4.0,14.0,53,0.00,,,-99.99,,2013-04-13 23:12:00,
2013-04-13 19:22:00,50.0,32.0,-100.00,West,261,4.0,14.0,53,0.00,,,-99.99,,2013-04-13 23:22:00,
2013-04-13 19:33:00,50.0,32.0,-100.00,WSW,249,4.0,14.0,53,0.00,,,-99.99,,2013-04-13 23:33:00,
2013-04-13 19:42:00,50.0,34.0,-100.00,WSW,256,3.0,14.0,54,0.00,,,-99.99,,2013-04-13 23:42:00,
2013-04-13 19:52:00,50.0,34.0,-100.00,NW,309,3.0,14.0,54,0.00,,,-99.99,,2013-04-13 23:52:00,
2013-04-13 20:03:00,49.0,34.0,-100.00,NNW,341,3.0,14.0,55,0.00,,,-99.99,,2013-04-14 00:03:00,
2013-04-13 20:12:00,49.0,32.0,-100.00,WSW,255,4.0,14.0,55,0.00,,,-99.99,,2013-04-14 00:12:00,
2013-04-13 20:22:00,49.0,32.0,-100.00,WNW,286,2.0,14.0,54,0.00,,,-99.99,,2013-04-14 00:22:00,
2013-04-13 20:32:00,47.0,32.0,-100.00,WNW,303,3.0,14.0,59,0.00,,,-99.99,,2013-04-14 00:32:00,
2013-04-13 20:42:00,47.0,34.0,-100.00,WNW,285,2.0,14.0,62,0.00,,,-99.99,,2013-04-14 00:42:00,
2013-04-13 20:52:00,46.0,32.0,-100.00,NW,314,6.0,14.0,60,0.00,,,-99.99,,2013-04-14 00:52:00,
2013-04-13 21:02:00,46.0,32.0,-100.00,NW,309,3.0,14.0,62,0.00,,,-99.99,,2013-04-14 01:02:00,
2013-04-13 21:12:00,46.0,34.0,-100.00,NW,309,5.0,14.0,63,0.00,,,-99.99,,2013-04-14 01:12:00,
2013-04-13 21:22:00,45.0,34.0,-100.00,WNW,300,6.0,14.0,66,0.00,,,-99.99,,2013-04-14 01:22:00,
2013-04-13 21:32:00,43.0,32.0,-100.00,NW,312,7.0,14.0,67,0.00,,,-99.99,,2013-04-14 01:32:00,
2013-04-13 21:42:00,43.0,32.0,-100.00,NNW,336,8.0,14.0,68,0.00,,,-99.99,,2013-04-14 01:42:00,
2013-04-13 21:52:00,42.0,32.0,-100.00,NNW,333,6.0,14.0,69,0.00,,,-99.99,,2013-04-14 01:52:00,
2013-04-13 22:02:00,43.0,34.0,-100.00,NNW,336,4.0,14.0,71,0.00,,,-99.99,,2013-04-14 02:02:00,
2013-04-13 22:12:00,42.0,32.0,-100.00,NW,307,6.0,14.0,71,0.00,,,-99.99,,2013-04-14 02:12:00,
2013-04-13 22:22:00,41.0,32.0,-100.00,WNW,283,4.0,14.0,71,0.00,,,-99.99,,2013-04-14 02:22:00,
2013-04-13 22:32:00,41.0,32.0,-100.00,WNW,289,2.0,14.0,72,0.00,,,-99.99,,2013-04-14 02:32:00,
2013-04-13 22:42:00,40.0,32.0,-100.00,NNW,340,1.0,14.0,72,0.00,,,-99.99,,2013-04-14 02:42:00,
2013-04-13 22:52:00,40.0,32.0,-100.00,NNW,331,1.0,14.0,72,0.00,,,-99.99,,2013-04-14 02:52:00,
2013-04-13 23:03:00,40.0,32.0,-100.00,NNW,338,1.0,14.0,72,0.00,,,-99.99,,2013-04-14 03:03:00,
2013-04-13 23:12:00,40.0,32.0,-100.00,NNW,330,0.0,14.0,75,0.00,,,-99.99,,2013-04-14 03:12:00,
2013-04-13 23:22:00,39.0,32.0,-100.00,NNE,18,0.0,14.0,76,0.00,,,-99.99,,2013-04-14 03:22:00,
2013-04-13 23:33:00,39.0,32.0,-100.00,NNW,337,0.0,14.0,75,0.00,,,-99.99,,2013-04-14 03:33:00,
2013-04-13 23:42:00,39.0,32.0,-100.00,WNW,302,2.0,14.0,73,0.00,,,-99.99,,2013-04-14 03:42:00,
2013-04-13 23:53:00,39.0,32.0,-100.00,NNW,334,1.0,14.0,73,0.00,,,-99.99,,2013-04-14 03:53:00,